sat.trackr.live / text

‹ back to catalog

GPS BIII-10 (PRN 13)

NORAD 68791 · 2026-087A

PAYLOAD ACTIVE UNKNOWN

§ Identity

Operator
Country
US
Launch date
2026-04-21
Launch site
AFETR
Launch vehicle
Mass (kg)
RCS (m²)

Purposes: nav

External: N2YO · Heavens-Above · Gunter

§ Orbital elements

Epoch: 2026-09-14T09:36:31.112640Z

Period
717.93 min
Inclination
54.9549°
Eccentricity
0.0021536
Mean motion
2.00577731 rev/d
Perigee alt
20,123.8 km
Apogee alt
20,238.2 km
Semi-major
26,559.1 km
B*
0.0000e+0
RAAN
204.2625°
Arg perigee
102.5730°
Mean anomaly
75.4972°
Rev number
262

§ Raw data

GPS BIII-10 (PRN 13)1 68791U 26087A   26257.40036010  .00000015  00000+0  00000+0 0  99942 68791  54.9549 204.2625 0021536 102.5730  75.4972  2.00577731  2621

JSON: /api/v1/satellites/68791 · /tle

For live sub-satellite position, see the globe view (requires WebGL).

§ Visibility from observer

Set your observer location to see the next 7 days of passes ≥ 10°. The values pass through the URL so the page stays shareable.

No JS? Fill the form by hand. The geolocation button needs JavaScript.